Meteopurmerend
purmerend
Purmerend - Baaienwijk



My webcam  My webcam


Onweer radar Meer informatie blitzortung!


Regen radar Meer informatie rain snow radar


Bezoek onze andere website:

CandyAppleRed WebdesignWebdesign Purmerend Candy Apple Red

MeteopurmerendBlog

Template documentation
and downloads



Het weer levert geen direct gevaar op.    Er zijn geen waarschuwingen afgegeven.

15 daagse weersverwachting Gjøvik (NO)

  • Overzicht
  • Per uur
  • 15 dagen
  • Extra
  • Vergelijk
  • Kaarten
  • Dagkaart
  • Meer »
  • Info
  • Statistieken
  • Directe link
    Temp 6h Neerslag Wind  
 04:10     22:21    Daglengte: 18:11 Vandaag
08:00
0.6 mm
1
14:00
10°
3.4 mm
1
20:00
12°
2.5 mm
1
 04:08     22:23    Daglengte: 18:15 Morgen
02:00
1.1 mm
1
08:00
 
2
14:00
6.8 mm
4
20:00
10°
2.8 mm
4
 04:07     22:25    Daglengte: 18:18 Zaterdag 28 Mei
02:00
 
4
08:00
10°
 
5
14:00
14°
 
6
20:00
11°
 
6
 04:05     22:27    Daglengte: 18:22 Zondag 29 Mei
02:00
 
3
Locatie info
Region: Oppland
Latitude: 60.7939°N
Longitude: 10.6941°E
127 masl
Postcode: 2815
Temp/Neerslag /Baro Onweer/Dauwpunt
    Temp Baro 1h Neerslag Dauwpunt Wind UV Bewolking  
 04:10     22:21    Daglengte: 18:11 Vandaag
08:00
Voelt als: 7.9°
999.3 hPa 0.6 mm
78%
7.9°
1
Windvlaag: 0.4 m/s
86%
09:00
Voelt als: 8.3°
999.3 hPa 1.0 mm
82%
7.9°
1
Windvlaag: 0.6 m/s
83%
10:00
Voelt als: 8.8°
999.5 hPa 1.0 mm
82%
8.1°
1
Windvlaag: 0.4 m/s
84%
11:00
10°
Voelt als: 9.5°
999.7 hPa 0.8 mm
82%
8.3°
1
Windvlaag: 0.8 m/s
71%
12:00
10°
999.9 hPa 0.6 mm
82%
8.3°
1
Windvlaag: -0.3 m/s
84%
13:00
10°
999.8 hPa
82%
8.3°
1
Windvlaag: -0 m/s
86%
14:00
10°
1000.0 hPa
82%
8.8°
1
Windvlaag: 0.8 m/s
68%
15:00
11°
999.9 hPa 1.2 mm
82%
9.3°
1
Windvlaag: 1.1 m/s
84%
16:00
11°
999.9 hPa 1.3 mm
82%
9.0°
1
Windvlaag: 2.3 m/s
74%
17:00
12°
999.6 hPa
82%
9.1°
1
Windvlaag: 3.4 m/s
18%
18:00
12°
999.7 hPa
82%
8.0°
2
Windvlaag: 3.1 m/s
76%
19:00
12°
999.7 hPa
82%
7.3°
1
Windvlaag: 2.9 m/s
71%
20:00
12°
999.9 hPa
38%
6.6°
1
Windvlaag: 0.2 m/s
67%
21:00
11°
1000.1 hPa
24%
8.6°
1
Windvlaag: -1.6 m/s
66%
22:00
10°
Voelt als: 9.2°
1000.6 hPa 1.1 mm
76%
7.7°
2
Windvlaag: -0.3 m/s
41%
23:00
Voelt als: 7.4°
1001.1 hPa
82%
6.7°
2
Windvlaag: -0.6 m/s
67%
 04:08     22:23    Daglengte: 18:15 Morgen
00:00
Voelt als: 7.0°
1001.2 hPa
78%
5.9°
2
Windvlaag: -0.6 m/s
66%
01:00
Voelt als: 6.7°
1001.2 hPa
77%
5.2°
2
Windvlaag: -0.6 m/s
75%
02:00
Voelt als: 6.8°
1001.3 hPa
82%
4.8°
1
Windvlaag: 0.3 m/s
79%
03:00
Voelt als: 5.8°
1001.0 hPa
82%
5.0°
1
Windvlaag: 1 m/s
81%
04:00
Voelt als: 4.9°
1000.7 hPa
78%
4.7°
2
Windvlaag: 1.7 m/s
71%
05:00
Voelt als: 4.8°
1000.5 hPa
25%
4.7°
2
Windvlaag: 2.1 m/s
70%
06:00
Voelt als: 5.2°
1000.3 hPa
24%
4.7°
2
Windvlaag: 1.6 m/s
80%
07:00
Voelt als: 5.6°
1000.2 hPa
74%
4.7°
2
Windvlaag: 0.5 m/s
77%
08:00
Voelt als: 6.6°
1000.1 hPa
81%
4.9°
2
Windvlaag: 0.4 m/s
77%
09:00
Voelt als: 7.2°
1000.1 hPa
82%
4.7°
2
Windvlaag: -1.5 m/s
79%
10:00
Voelt als: 7.0°
1000.2 hPa 1.9 mm
82%
3.9°
3
Windvlaag: -4.3 m/s
81%
11:00
Voelt als: 7.0°
1000.1 hPa
82%
1.7°
4
Windvlaag: -4.8 m/s
82%
12:00
Voelt als: 7.1°
1000.2 hPa 1.8 mm
82%
3.0°
4
Windvlaag: -4.6 m/s
82%
13:00
Voelt als: 7.3°
1000.2 hPa 1.6 mm
82%
2.9°
4
Windvlaag: -4.3 m/s
85%
14:00
Voelt als: 7.2°
1000.0 hPa 1.4 mm
82%
4.6°
4
Windvlaag: -4 m/s
83%
15:00
10°
Voelt als: 8.1°
1000.1 hPa 1.3 mm
81%
6.3°
4
Windvlaag: -3 m/s
86%
16:00
10°
999.9 hPa 1.4 mm
81%
7.4°
3
Windvlaag: -2.6 m/s
78%
17:00
11°
999.8 hPa
75%
7.9°
4
Windvlaag: -2.1 m/s
77%
18:00
11°
999.8 hPa
33%
7.7°
4
Windvlaag: -2.3 m/s
63%
19:00
10°
1000.2 hPa
19%
7.6°
4
Windvlaag: -5.4 m/s
81%
20:00
10°
Voelt als: 7.9°
1000.8 hPa
15%
7.7°
4
Windvlaag: -5 m/s
78%
21:00
Voelt als: 7.4°
1001.1 hPa
16%
7.6°
4
Windvlaag: -4.8 m/s
84%
22:00
Voelt als: 6.6°
1001.5 hPa
15%
6.7°
4
Windvlaag: -5 m/s
79%
23:00
Voelt als: 6.0°
1001.9 hPa
14%
5.9°
4
Windvlaag: -4.8 m/s
69%
 04:07     22:25    Daglengte: 18:18 Zaterdag 28 Mei
00:00
Voelt als: 6.0°
1002.1 hPa
27%
5.6°
4
Windvlaag: -4 m/s
67%
01:00
Voelt als: 5.8°
1002.1 hPa
33%
5.4°
4
Windvlaag: -2.3 m/s
70%
02:00
Voelt als: 5.7°
1002.0 hPa
34%
5.2°
4
Windvlaag: -1.9 m/s
46%
03:00
Voelt als: 5.4°
1002.0 hPa
29%
4.7°
4
Windvlaag: -2.3 m/s
63%
04:00
Voelt als: 5.5°
1002.1 hPa
21%
4.8°
5
Windvlaag: -2.9 m/s
46%
05:00
Voelt als: 5.5°
1002.5 hPa
21%
1.4°
5
Windvlaag: -2.9 m/s
35%
06:00
Voelt als: 6.0°
1002.6 hPa
27%
1.3°
5
Windvlaag: -2.8 m/s
34%
07:00
Voelt als: 7.0°
1002.7 hPa
73%
0.9°
5
Windvlaag: -2.5 m/s
90%
08:00
10°
1003.0 hPa
89%
1.4°
5
Windvlaag: -2.8 m/s
84%
09:00
11°
1003.3 hPa
28%
1.2°
5
Windvlaag: -2.8 m/s
71%
10:00
12°
1003.6 hPa
30%
1.0°
5
Windvlaag: -2.8 m/s
66%
11:00
12°
1004.0 hPa
24%
0.7°
5
Windvlaag: -3.8 m/s
65%
12:00
13°
1004.3 hPa
73%
0.8°
6
Windvlaag: -4.9 m/s
66%
13:00
13°
1004.7 hPa
25%
0.6°
6
Windvlaag: -5 m/s
61%
14:00
14°
1005.1 hPa
27%
-0.1°
6
Windvlaag: -5.6 m/s
67%
15:00
14°
1005.4 hPa
26%
-0.0°
6
Windvlaag: -5.9 m/s
59%
16:00
14°
1005.7 hPa
21%
0.1°
6
Windvlaag: -5.8 m/s
61%
17:00
14°
1006.2 hPa
21%
0.3°
6
Windvlaag: -5.6 m/s
57%
18:00
13°
1006.7 hPa
21%
-0.6°
6
Windvlaag: -5.5 m/s
74%
19:00
12°
1007.2 hPa
21%
-1.0°
6
Windvlaag: -5.2 m/s
72%
20:00
11°
1007.6 hPa
21%
-0.6°
6
Windvlaag: -4.1 m/s
74%
21:00
10°
1008.0 hPa
21%
-0.2°
5
Windvlaag: -2.9 m/s
61%
22:00
Voelt als: 7.1°
1008.5 hPa
21%
1.0°
3
Windvlaag: -1.6 m/s
31%
23:00
Voelt als: 6.4°
1008.8 hPa
21%
0.9°
3
Windvlaag: -1.3 m/s
17%
 04:05     22:27    Daglengte: 18:22 Zondag 29 Mei
00:00
Voelt als: 5.4°
1008.1 hPa
21%
0.0°
3
Windvlaag: 11.2 m/s
80%
01:00
Voelt als: 5.4°
1008.0 hPa
21%
0.2°
3
Windvlaag: 11.7 m/s
79%
02:00
Voelt als: 5.2°
1007.9 hPa
21%
-0.1°
3
Windvlaag: 11.7 m/s
63%
03:00
Voelt als: 5.0°
1007.9 hPa
21%
-0.4°
3
Windvlaag: 11.5 m/s
61%
04:00
Voelt als: 5.0°
1007.8 hPa
21%
-1.7°
3
Windvlaag: 11.3 m/s
67%
05:00
Voelt als: 5.2°
1007.8 hPa
21%
-1.9°
3
Windvlaag: 11 m/s
76%
06:00
Voelt als: 5.4°
1007.7 hPa
22%
-2.1°
3
Windvlaag: 13.9 m/s
42%
07:00
Voelt als: 6.0°
1007.6 hPa
21%
-1.7°
3
Windvlaag: 13.2 m/s
15%
Temp/Neerslag /Baro Onweer/Dauwpunt
    Temp Baro Neerslag Dauwpunt Wind Bewolking  
 04:10     22:21    Daglengte: 18:11 Vandaag
08:00
Voelt als: 7.9°
999.3 hPa 0.6 mm 7.9°
1
86%
11:00
10°
Voelt als: 9.5°
999.7 hPa 2.7 mm 8.3°
1
71%
14:00
10°
1000.0 hPa 0.6 mm 8.8°
1
68%
17:00
12°
999.6 hPa 2.5 mm 9.1°
1
18%
20:00
12°
999.9 hPa   6.6°
1
67%
23:00
Voelt als: 7.4°
1001.1 hPa 1.1 mm 6.7°
2
67%
 04:08     22:23    Daglengte: 18:15 Morgen
02:00
Voelt als: 6.8°
1001.3 hPa   4.8°
1
79%
05:00
Voelt als: 4.8°
1000.5 hPa   4.7°
2
70%
08:00
Voelt als: 6.6°
1000.1 hPa   4.9°
2
77%
11:00
Voelt als: 7.0°
1000.1 hPa 1.9 mm 1.7°
4
82%
14:00
Voelt als: 7.2°
1000.0 hPa 4.9 mm 4.6°
4
83%
17:00
11°
999.8 hPa 2.8 mm 7.9°
4
77%
20:00
10°
Voelt als: 7.9°
1000.8 hPa   7.7°
4
78%
23:00
Voelt als: 6.0°
1001.9 hPa   5.9°
4
69%
 04:07     22:25    Daglengte: 18:18 Zaterdag 28 Mei
02:00
Voelt als: 5.7°
1002.0 hPa   5.2°
4
46%
05:00
Voelt als: 5.5°
1002.5 hPa   1.4°
5
35%
08:00
10°
1003.0 hPa   1.4°
5
84%
11:00
12°
1004.0 hPa   0.7°
5
65%
14:00
14°
1005.1 hPa   -0.1°
6
67%
17:00
14°
1006.2 hPa   0.3°
6
57%
20:00
11°
1007.6 hPa   -0.6°
6
74%
23:00
Voelt als: 6.4°
1008.8 hPa   0.9°
3
17%
 04:05     22:27    Daglengte: 18:22 Zondag 29 Mei
02:00
Voelt als: 5.2°
1007.9 hPa   -0.1°
3
63%
05:00
Voelt als: 5.2°
1007.8 hPa   -1.9°
3
76%
08:00
Voelt als: 6.9°
1007.7 hPa   -0.9°
4
45%
11:00
14°
1007.7 hPa 28.5 mm -0.8°
3
1%
14:00
15°
1007.5 hPa 28.5 mm -0.4°
3
1%
17:00
15°
1007.8 hPa 28.5 mm 0.5°
4
1%
20:00
12°
1009.4 hPa 28.5 mm 4.3°
4
1%
23:00
Voelt als: 8.0°
1011.7 hPa 28.5 mm 5.0°
2
1%
 04:03     22:29    Daglengte: 18:26 Maandag 30 Mei
02:00
Voelt als: 8.4°
1011.8 hPa 28.5 mm 5.1°
1
1%
05:00
Voelt als: 8.2°
1011.7 hPa 28.5 mm 5.0°
1
1%
08:00
11°
1011.5 hPa 28.5 mm 4.8°
1
1%
11:00
12°
1011.1 hPa 28.6 mm 6.6°
2
1%
14:00
15°
1010.5 hPa 28.8 mm 5.4°
2
1%
17:00
15°
1009.6 hPa 28.9 mm 6.3°
3
1%
20:00
14°
1009.3 hPa 29.0 mm 7.1°
2
1%
23:00
Voelt als: 8.6°
1010.6 hPa 29.0 mm 6.7°
1
1%
 04:02     22:31    Daglengte: 18:29 Dinsdag 31 Mei
02:00
1011.5 hPa 29.0 mm 5.7°
1
1%
05:00
Voelt als: 6.2°
1012.0 hPa 29.0 mm 5.4°
1
1%
08:00
12°
1011.9 hPa 29.0 mm 6.7°
1
1%
11:00
15°
1011.3 hPa 29.6 mm 5.9°
3
1%
14:00
16°
1010.9 hPa 29.8 mm 3.8°
3
1%
17:00
16°
1011.1 hPa 30.6 mm 8.4°
3
1%
20:00
13°
1012.0 hPa 32.0 mm 10.5°
1
1%
23:00
Voelt als: 8.8°
1013.6 hPa 32.3 mm 7.7°
1
1%
 04:00     22:33    Daglengte: 18:33 Woensdag 01 Jun
02:00
1014.4 hPa 32.3 mm 6.5°
1
1%
05:00
Voelt als: 6.4°
1015.1 hPa 32.3 mm 6.3°
0
0%
08:00
11°
1014.8 hPa 32.3 mm 8.9°
0
0%
11:00
16°
1013.6 hPa 32.8 mm 7.6°
1
0%
14:00
19°
1012.3 hPa 33.2 mm 5.7°
1
0%
17:00
18°
1012.2 hPa 33.2 mm 5.8°
1
1%
20:00
18°
1011.8 hPa 33.2 mm 8.1°
0
1%
23:00
12°
1013.4 hPa 33.3 mm 7.3°
1
1%
 03:58     22:35    Daglengte: 18:37 Donderdag 02 Jun
02:00
1015.3 hPa 33.3 mm 7.5°
1
0%
05:00
10°
1016.1 hPa   7.2°
1
0%
08:00
13°
1016.1 hPa 66.6 mm 7.7°
1
1%
14:00
23°
1014.6 hPa 66.6 mm 3.5°
1
0%
20:00
17°
1016.0 hPa 66.6 mm 6.0°
4
1%
 03:57     22:36    Daglengte: 18:39 Vrijdag 03 Jun
02:00
1019.8 hPa 66.6 mm 4.9°
1
0%
08:00
14°
1019.7 hPa 66.6 mm 6.1°
1
0%
14:00
21°
1018.8 hPa 66.6 mm 5.3°
1
0%
20:00
19°
1019.8 hPa 66.6 mm 8.5°
1
1%
 03:56     22:38    Daglengte: 18:42 Zaterdag 04 Jun
02:00
14°
1023.0 hPa 66.6 mm 8.3°
0
0%
08:00
17°
1024.2 hPa 66.6 mm 8.7°
0
0%
14:00
24°
1022.5 hPa 66.6 mm 5.1°
2
0%
20:00
22°
1021.6 hPa 66.6 mm 9.0°
2
1%
 03:55     22:40    Daglengte: 18:45 Zondag 05 Jun
02:00
Voelt als: 9.2°
1016.2 hPa 0.8 mm 6.7°
1
69%
08:00
12°
1015.7 hPa 0.8 mm 7.4°
1
64%
14:00
17°
1014.4 hPa 0.7 mm 7.4°
1
61%
20:00
16°
1013.5 hPa 1.4 mm 8.5°
1
74%
 03:53     22:41    Daglengte: 18:48 Maandag 06 Jun
02:00
1015.3 hPa 0.4 mm 6.4°
1
58%
08:00
13°
1015.0 hPa 0.4 mm 7.5°
1
62%
14:00
18°
1013.4 hPa 0.9 mm 8.1°
0
66%
20:00
17°
1012.1 hPa 0.8 mm 9.3°
1
64%
 03:52     22:43    Daglengte: 18:51 Dinsdag 07 Jun
02:00
10°
1013.4 hPa 0.4 mm 7.2°
1
56%
08:00
13°
1012.6 hPa   8.0°
1
62%
14:00
18°
1010.5 hPa 1.3 mm 8.4°
1
66%
20:00
16°
1009.4 hPa 1.3 mm 9.6°
1
70%
 03:51     22:44    Daglengte: 18:53 Woensdag 08 Jun
02:00
10°
1010.8 hPa 0.7 mm 7.7°
1
69%
08:00
12°
1010.5 hPa 0.9 mm 8.5°
1
71%
14:00
17°
1009.3 hPa 1.6 mm 9.2°
1
66%
20:00
15°
1008.8 hPa 2.1 mm 9.7°
1
78%
 03:50     22:45    Daglengte: 18:55 Donderdag 09 Jun
02:00
10°
1010.3 hPa 0.7 mm 7.6°
0
75%
08:00
12°
1010.1 hPa 0.4 mm 7.9°
0
84%
14:00
17°
1009.1 hPa 0.7 mm 8.5°
1
74%
20:00
16°
1008.5 hPa 1.5 mm 9.6°
0
77%
 03:50     22:47    Daglengte: 18:57 Vrijdag 10 Jun
02:00
10°
1010.1 hPa   8.0°
1
70%
  CAPE Lifted Index Hail Supercell Tornado SRH 3km CL BTM PRES CL TOP PRES Swiss DWD icon SMHI TS
 04:10     22:21    Daglengte: 18:11 Vandaag
08:00 36 J/kg 1.7 K 0 % 0 % 0 % 0 m²/s² 0 0 2.3 61
09:00 32 J/kg 1.7 K 0 % 0 % 0 % 0 m²/s² 0 0 2.27 61
10:00 26 J/kg 1.4 K 0 % 0 % 0 % 0 m²/s² 0 0 1.88 61
11:00 48 J/kg 0.8 K 0 % 0 % 0 % 0 m²/s² 0 0 1.37 61
12:00 62 J/kg 0.3 K 0 % 0 % 0 % 0 m²/s² 0 0 0.96 61
13:00 163 J/kg -0.6 K 0 % 0 % 0 % 0 m²/s² 0 0 -0.24 61
14:00 155 J/kg -0.6 K 0 % 0 % 0 % 0 m²/s² 0 0 -0.33 3
15:00 77 J/kg -0.3 K 0 % 0 % 0 % 0 m²/s² 0 0 0.09 80
16:00 310 J/kg -1.6 K 0 % 0 % 0 % 0 m²/s² 0 0 -0.94 80
17:00 278 J/kg -1.4 K 0 % 0 % 0 % 0 m²/s² 0 0 -0.56 2
18:00 92 J/kg -0.2 K 0 % 0 % 0 % 0 m²/s² 0 0 0.67 80
19:00 52 J/kg 0.4 K 0 % 0 % 0 % 0 m²/s² 0 0 0.79 3
20:00 49 J/kg 0.7 K 0 % 0 % 0 % 0 m²/s² 0 0 1.3 3
21:00 36 J/kg 0.9 K 0 % 0 % 0 % 0 m²/s² 0 0 1.98 3
22:00 0 J/kg 1.8 K 0 % 0 % 0 % 0 m²/s² 0 0 2.88 80
23:00 0 J/kg 2.5 K 0 % 0 % 0 % 0 m²/s² 0 0 3.82 80
 04:08     22:23    Daglengte: 18:15 Morgen
00:00 0 J/kg 3.1 K 0 % 0 % 0 % 0 m²/s² 0 0 4.42 61
01:00 0 J/kg 3.7 K 0 % 0 % 0 % 0 m²/s² 0 0 5.11 61
02:00 0 J/kg 3.5 K 0 % 0 % 0 % 0 m²/s² 0 0 6.23 61
03:00 0 J/kg 3.9 K 0 % 0 % 0 % 0 m²/s² 0 0 7.65 61
04:00 0 J/kg 4.2 K 0 % 0 % 0 % 0 m²/s² 0 0 7.86 3
05:00 0 J/kg 4.6 K 0 % 0 % 0 % 0 m²/s² 0 0 8.77 3
06:00 0 J/kg 5.0 K 0 % 0 % 0 % 0 m²/s² 0 0 9.74 3
07:00 0 J/kg 5.1 K 0 % 0 % 0 % 0 m²/s² 0 0 10.23 3
08:00 0 J/kg 5.1 K 0 % 0 % 0 % 0 m²/s² 0 0 9.84 61
09:00 0 J/kg 5.1 K 0 % 0 % 0 % 0 m²/s² 0 0 9.18 61
10:00 0 J/kg 5.1 K 0 % 0 % 0 % 0 m²/s² 0 0 7.44 61
11:00 0 J/kg 4.6 K 0 % 0 % 0 % 0 m²/s² 0 0 5.23 63
12:00 3 J/kg 3.7 K 0 % 0 % 0 % 0 m²/s² 0 0 4.42 61
13:00 9 J/kg 2.7 K 0 % 0 % 0 % 0 m²/s² 0 0 3.18 61
14:00 25 J/kg 1.7 K 0 % 0 % 0 % 0 m²/s² 0 0 2.15 61
15:00 22 J/kg 1.0 K 0 % 0 % 0 % 0 m²/s² 0 0 1.33 61
16:00 75 J/kg 0.4 K 0 % 0 % 0 % 0 m²/s² 0 0 0.91 61
17:00 90 J/kg 0.4 K 0 % 0 % 0 % 0 m²/s² 0 0 0.91 61
18:00 37 J/kg 1.3 K 0 % 0 % 0 % 0 m²/s² 0 0 1.78 3
19:00 23 J/kg 2.0 K 0 % 0 % 0 % 0 m²/s² 0 0 2.39 3
20:00 1 J/kg 3.3 K 0 % 0 % 0 % 0 m²/s² 0 0 3.63 3
21:00 0 J/kg 4.6 K 0 % 0 % 0 % 0 m²/s² 0 0 4.93 3
22:00 0 J/kg 4.3 K 0 % 0 % 0 % 0 m²/s² 0 0 4.78 3
23:00 0 J/kg 3.8 K 0 % 0 % 0 % 0 m²/s² 0 0 4.25 3
 04:07     22:25    Daglengte: 18:18 Zaterdag 28 Mei
00:00 0 J/kg 3.2 K 0 % 0 % 0 % 0 m²/s² 0 0 3.56 3
01:00 0 J/kg 3.1 K 0 % 0 % 0 % 0 m²/s² 0 0 3.94 3
02:00 0 J/kg 3.3 K 0 % 0 % 0 % 0 m²/s² 0 0 4.77 3
03:00 0 J/kg 3.6 K 0 % 0 % 0 % 0 m²/s² 0 0 4.35 3
04:00 0 J/kg 4.2 K 0 % 0 % 0 % 0 m²/s² 0 0 5.19 3
05:00 0 J/kg 5.7 K 0 % 0 % 0 % 0 m²/s² 0 0 7.92 2
06:00 0 J/kg 6.1 K 0 % 0 % 0 % 0 m²/s² 0 0 7.54 2
07:00 0 J/kg 6.1 K 0 % 0 % 0 % 0 m²/s² 0 0 7.33 3
08:00 0 J/kg 5.8 K 0 % 0 % 0 % 0 m²/s² 0 0 7.96 3
09:00 0 J/kg 5.5 K 0 % 0 % 0 % 0 m²/s² 0 0 7.66 3
10:00 0 J/kg 6.0 K 0 % 0 % 0 % 0 m²/s² 0 0 8.22 3
11:00 0 J/kg 5.9 K 0 % 0 % 0 % 0 m²/s² 0 0 8.27 3
12:00 0 J/kg 5.7 K 0 % 0 % 0 % 0 m²/s² 0 0 7.8 3
13:00 0 J/kg 5.6 K 0 % 0 % 0 % 0 m²/s² 0 0 7.58 3
14:00 0 J/kg 4.8 K 0 % 0 % 0 % 0 m²/s² 0 0 6.78 3
15:00 0 J/kg 5.0 K 0 % 0 % 0 % 0 m²/s² 0 0 7.22 3
16:00 0 J/kg 5.2 K 0 % 0 % 0 % 0 m²/s² 0 0 7.48 3
17:00 0 J/kg 5.4 K 0 % 0 % 0 % 0 m²/s² 0 0 7.62 3
18:00 0 J/kg 6.6 K 0 % 0 % 0 % 0 m²/s² 0 0 9.54 3
19:00 0 J/kg 7.2 K 0 % 0 % 0 % 0 m²/s² 0 0 10.56 3
20:00 0 J/kg 7.6 K 0 % 0 % 0 % 0 m²/s² 0 0 11.05 3
21:00 0 J/kg 8.0 K 0 % 0 % 0 % 0 m²/s² 0 0 11.33 3
22:00 0 J/kg 8.4 K 0 % 0 % 0 % 0 m²/s² 0 0 11.82 2
23:00 0 J/kg 8.0 K 0 % 0 % 0 % 0 m²/s² 0 0 11.42 2
 04:05     22:27    Daglengte: 18:22 Zondag 29 Mei
00:00 0 J/kg 7.7 K 0 % 0 % 0 % 0 m²/s² 0 0 10.7 3
01:00 0 J/kg 7.4 K 0 % 0 % 0 % 0 m²/s² 0 0 9.71 3
02:00 0 J/kg 7.0 K 0 % 0 % 0 % 0 m²/s² 0 0 8.68 3
03:00 0 J/kg 7.4 K 0 % 0 % 0 % 0 m²/s² 0 0 8.42 3
04:00 0 J/kg 7.6 K 0 % 0 % 0 % 0 m²/s² 0 0 8.08 2
05:00 0 J/kg 7.7 K 0 % 0 % 0 % 0 m²/s² 0 0 8.18 3
06:00 0 J/kg 7.6 K 0 % 0 % 0 % 0 m²/s² 0 0 8.11 2
07:00 0 J/kg 7.4 K 0 % 0 % 0 % 0 m²/s² 0 0 7.97 1
Temp Baro Wind Neerslag
  EWN Forecast EWN WRFDA DWD ICON FMI HIRLAM MET Norway GFS
 04:10     22:21    Daglengte: 18:11 Vandaag
08:00 8.4° 999.3 hPa 1.4 m/s 0.6 mm 9.1° 996.5 hPa 2.3 m/s 1.9 mm 8.4° 999.7 hPa 1.5 m/s -1.7 mm 8.5° 999.1 hPa 1.3 m/s 0.0 mm 9.0° 998.7 hPa 0.6 m/s
11:00 9.5° 999.7 hPa 0.6 m/s 2.7 mm 11.7° 997.0 hPa 2.5 m/s 4.5 mm 9.5° 1000.2 hPa 1.0 m/s 3.1 mm 9.5° 999.5 hPa 0.4 m/s 0.0 mm 10.5° 999.2 hPa 1.0 m/s
14:00 10.2° 1000.0 hPa 1.1 m/s 0.6 mm 11.3° 997.5 hPa 2.3 m/s 6.6 mm 11.1° 1000.4 hPa 0.5 m/s 0.5 mm 10.1° 1000.2 hPa 1.6 m/s 0.0 mm 13.6° 998.7 hPa 0.9 m/s
17:00 12.3° 999.6 hPa 0.6 m/s 2.5 mm 15.5° 996.6 hPa 2.8 m/s 12.5 mm 12.2° 1000.2 hPa 0.2 m/s 2.0 mm 12.9° 999.9 hPa 0.3 m/s 0.0 mm 13.8° 998.0 hPa 1.3 m/s
20:00 11.6° 999.9 hPa 1.4 m/s 0.0 mm 14.5° 997.5 hPa 4.5 m/s 12.8 mm 11.3° 999.4 hPa 0.6 m/s 2.6 mm 13.1° 1000.5 hPa 1.1 m/s 0.0 mm 11.8° 998.2 hPa 1.3 m/s
23:00 8.6° 1001.1 hPa 2.3 m/s 1.1 mm 11.3° 998.6 hPa 5.1 m/s 12.9 mm 8.3° 1000.8 hPa 3.8 m/s 1.0 mm 8.2° 1002.4 hPa 0.5 m/s 0.0 mm 7.4° 1000.0 hPa 4.0 m/s
 04:08     22:23    Daglengte: 18:15 Morgen
02:00 6.9° 1001.3 hPa 1.0 m/s 0.0 mm 8.2° 998.7 hPa 3.2 m/s 12.9 mm 7.0° 1000.3 hPa 2.4 m/s 0.5 mm 4.9° 1002.8 hPa 0.5 m/s 0.0 mm 5.9° 1000.7 hPa 2.9 m/s
05:00 5.9° 1000.5 hPa 1.7 m/s 0.0 mm 6.0° 998.9 hPa 3.5 m/s 12.9 mm 6.3° 999.9 hPa 2.0 m/s 0.1 mm 3.0° 1002.3 hPa 1.5 m/s 0.0 mm 5.3° 1000.2 hPa 3.1 m/s
08:00 7.7° 1000.1 hPa 1.9 m/s 0.0 mm 10.0° 997.8 hPa 4.1 m/s 12.9 mm 6.5° 999.5 hPa 3.9 m/s 0.4 mm 8.1° 1001.2 hPa 1.4 m/s 0.0 mm 5.4° 999.8 hPa 2.9 m/s
11:00 9.0° 1000.1 hPa 3.7 m/s 1.9 mm 12.6° 997.3 hPa 3.8 m/s 12.9 mm 5.7° 1000.4 hPa 5.1 m/s 6.4 mm 12.0° 1000.2 hPa 2.1 m/s 0.0 mm 6.2° 999.9 hPa 2.7 m/s
14:00 9.2° 1000.0 hPa 3.6 m/s 4.9 mm 12.6° 997.2 hPa 4.0 m/s 12.9 mm 7.7° 1000.1 hPa 4.4 m/s 4.6 mm 12.5° 1000.2 hPa 1.4 m/s 0.0 mm 8.5° 999.8 hPa 1.5 m/s
17:00 10.8° 999.8 hPa 3.7 m/s 2.8 mm 13.2° 997.4 hPa 4.4 m/s 15.3 mm 10.9° 999.7 hPa 3.9 m/s 1.2 mm 10.7° 1000.9 hPa 1.8 m/s 0.0 mm 13.0° 998.5 hPa 4.1 m/s
20:00 9.8° 1000.8 hPa 3.8 m/s 0.0 mm 11.8° 998.5 hPa 6.0 m/s 17.4 mm 10.4° 1000.8 hPa 3.8 m/s 0.0 mm 9.5° 1001.0 hPa 1.1 m/s 0.0 mm 12.7° 999.4 hPa 3.4 m/s
23:00 8.5° 1001.9 hPa 4.3 m/s 0.0 mm 10.0° 998.8 hPa 6.3 m/s 17.6 mm 8.3° 1002.1 hPa 4.4 m/s 0.0 mm 8.0° 1002.2 hPa 2.5 m/s 0.0 mm 9.6° 1001.7 hPa 2.7 m/s
 04:07     22:25    Daglengte: 18:18 Zaterdag 28 Mei
02:00 8.1° 1002.0 hPa 4.0 m/s 0.0 mm 9.4° 999.0 hPa 6.4 m/s 17.6 mm 8.3° 1002.2 hPa 4.4 m/s 0.0 mm 7.0° 1001.9 hPa 3.2 m/s 0.0 mm 8.7° 1002.7 hPa 2.6 m/s
05:00 8.4° 1002.5 hPa 5.4 m/s 0.0 mm 9.7° 1000.3 hPa 7.0 m/s 17.6 mm 8.2° 1002.6 hPa 5.4 m/s 0.0 mm 6.0° 1004.1 hPa 2.2 m/s
08:00 10.1° 1003.0 hPa 4.6 m/s 0.0 mm 11.8° 1001.6 hPa 6.9 m/s 17.6 mm 9.9° 1002.7 hPa 4.2 m/s 0.1 mm 11.3° 1003.9 hPa 3.6 m/s
11:00 12.4° 1004.0 hPa 5.5 m/s 0.0 mm 14.0° 1002.0 hPa 8.7 m/s 17.6 mm 12.4° 1003.7 hPa 5.1 m/s 0.0 mm 14.9° 1004.0 hPa 5.4 m/s
14:00 13.7° 1005.1 hPa 6.1 m/s 0.0 mm 16.5° 1003.0 hPa 8.7 m/s 17.6 mm 13.5° 1005.0 hPa 5.7 m/s 0.0 mm 17.2° 1004.5 hPa 5.2 m/s
17:00 13.8° 1006.2 hPa 6.4 m/s 0.0 mm 15.4° 1004.3 hPa 9.6 m/s 17.6 mm 13.7° 1006.0 hPa 6.1 m/s 0.0 mm 16.9° 1005.5 hPa 5.4 m/s
20:00 11.3° 1007.6 hPa 5.6 m/s 0.0 mm 12.3° 1005.3 hPa 7.7 m/s 17.6 mm 11.2° 1007.5 hPa 5.7 m/s 0.0 mm 14.4° 1006.1 hPa 4.0 m/s
23:00 8.2° 1008.8 hPa 2.8 m/s 0.0 mm 7.1° 1005.9 hPa 3.2 m/s 17.6 mm 8.1° 1008.6 hPa 3.1 m/s 0.0 mm 7.7° 1007.6 hPa 1.7 m/s
 04:05     22:27    Daglengte: 18:22 Zondag 29 Mei
02:00 7.1° 1007.9 hPa 2.7 m/s 0.0 mm 5.8° 1005.0 hPa 4.4 m/s 17.6 mm 7.4° 1008.6 hPa 2.3 m/s 0.0 mm 5.7° 1008.3 hPa 1.3 m/s
05:00 7.0° 1007.8 hPa 2.6 m/s 0.0 mm 7.6° 1004.5 hPa 4.5 m/s 17.6 mm 6.8° 1008.6 hPa 2.2 m/s 0.0 mm 6.6° 1008.5 hPa 0.9 m/s
08:00 9.0° 1007.7 hPa 3.7 m/s 0.0 mm 9.4° 1004.6 hPa 6.9 m/s 17.6 mm 8.9° 1008.4 hPa 2.9 m/s 0.0 mm 10.3° 1008.5 hPa 1.3 m/s
11:00 13.8° 1007.7 hPa 2.8 m/s 28.5 mm 13.8° 1007.7 hPa 2.8 m/s 28.5 mm
14:00 14.6° 1007.5 hPa 2.8 m/s 28.5 mm 14.6° 1007.5 hPa 2.8 m/s 28.5 mm
17:00 15.2° 1007.8 hPa 3.9 m/s 28.5 mm 15.2° 1007.8 hPa 3.9 m/s 28.5 mm
20:00 12.3° 1009.4 hPa 3.6 m/s 28.5 mm 12.3° 1009.4 hPa 3.6 m/s 28.5 mm
23:00 8.7° 1011.7 hPa 1.7 m/s 28.5 mm 8.7° 1011.7 hPa 1.7 m/s 28.5 mm
 04:03     22:29    Daglengte: 18:26 Maandag 30 Mei
02:00 8.5° 1011.8 hPa 1.2 m/s 28.5 mm 8.5° 1011.8 hPa 1.2 m/s 28.5 mm
05:00 8.2° 1011.7 hPa 1.0 m/s 28.5 mm 8.2° 1011.7 hPa 1.0 m/s 28.5 mm
08:00 10.9° 1011.5 hPa 1.3 m/s 28.5 mm 10.9° 1011.5 hPa 1.3 m/s 28.5 mm
11:00 12.3° 1011.1 hPa 2.4 m/s 28.6 mm 12.3° 1011.1 hPa 2.4 m/s 28.6 mm
14:00 14.8° 1010.5 hPa 2.2 m/s 28.8 mm 14.8° 1010.5 hPa 2.2 m/s 28.8 mm
17:00 14.7° 1009.6 hPa 2.7 m/s 28.9 mm 14.7° 1009.6 hPa 2.7 m/s 28.9 mm
20:00 14.2° 1009.3 hPa 1.7 m/s 29.0 mm 14.2° 1009.3 hPa 1.7 m/s 29.0 mm
23:00 8.6° 1010.6 hPa 1.1 m/s 29.0 mm 8.6° 1010.6 hPa 1.1 m/s 29.0 mm
 04:02     22:31    Daglengte: 18:29 Dinsdag 31 Mei
02:00 6.8° 1011.5 hPa 0.8 m/s 29.0 mm 6.8° 1011.5 hPa 0.8 m/s 29.0 mm
05:00 6.2° 1012.0 hPa 0.7 m/s 29.0 mm 6.2° 1012.0 hPa 0.7 m/s 29.0 mm
08:00 11.9° 1011.9 hPa 1.5 m/s 29.0 mm 11.9° 1011.9 hPa 1.5 m/s 29.0 mm
11:00 15.4° 1011.3 hPa 2.7 m/s 29.6 mm 15.4° 1011.3 hPa 2.7 m/s 29.6 mm
14:00 16.1° 1010.9 hPa 2.6 m/s 29.8 mm 16.1° 1010.9 hPa 2.6 m/s 29.8 mm
17:00 15.6° 1011.1 hPa 2.8 m/s 30.6 mm 15.6° 1011.1 hPa 2.8 m/s 30.6 mm
20:00 13.2° 1012.0 hPa 1.3 m/s 32.0 mm 13.2° 1012.0 hPa 1.3 m/s 32.0 mm
23:00 8.8° 1013.6 hPa 0.6 m/s 32.3 mm 8.8° 1013.6 hPa 0.6 m/s 32.3 mm
 04:00     22:33    Daglengte: 18:33 Woensdag 01 Jun
02:00 7.0° 1014.4 hPa 0.8 m/s 32.3 mm 7.0° 1014.4 hPa 0.8 m/s 32.3 mm
05:00 6.4° 1015.1 hPa 0.4 m/s 32.3 mm 6.4° 1015.1 hPa 0.4 m/s 32.3 mm
08:00 11.0° 1014.8 hPa 0.4 m/s 32.3 mm 11.0° 1014.8 hPa 0.4 m/s 32.3 mm
11:00 15.8° 1013.6 hPa 1.0 m/s 32.8 mm 15.8° 1013.6 hPa 1.0 m/s 32.8 mm
14:00 19.4° 1012.3 hPa 1.1 m/s 33.2 mm 19.4° 1012.3 hPa 1.1 m/s 33.2 mm
17:00 18.3° 1012.2 hPa 0.7 m/s 33.2 mm 18.3° 1012.2 hPa 0.7 m/s 33.2 mm
20:00 18.1° 1011.8 hPa 0.4 m/s 33.2 mm 18.1° 1011.8 hPa 0.4 m/s 33.2 mm
23:00 11.7° 1013.4 hPa 0.9 m/s 33.3 mm 11.7° 1013.4 hPa 0.9 m/s 33.3 mm
 03:58     22:35    Daglengte: 18:37 Donderdag 02 Jun
02:00 9.4° 1015.3 hPa 1.1 m/s 33.3 mm 9.4° 1015.3 hPa 1.1 m/s 33.3 mm
05:00 10.1° 1016.1 hPa 0.8 m/s 33.3 mm 10.1° 1016.1 hPa 0.8 m/s 33.3 mm
08:00 13.4° 1016.1 hPa 0.9 m/s 33.3 mm 13.4° 1016.1 hPa 0.9 m/s 33.3 mm
14:00 22.6° 1014.6 hPa 1.4 m/s 33.3 mm 22.6° 1014.6 hPa 1.4 m/s 33.3 mm
20:00 16.7° 1016.0 hPa 3.9 m/s 33.3 mm 16.7° 1016.0 hPa 3.9 m/s 33.3 mm
 03:57     22:36    Daglengte: 18:39 Vrijdag 03 Jun
02:00 8.7° 1019.8 hPa 0.5 m/s 33.3 mm 8.7° 1019.8 hPa 0.5 m/s 33.3 mm
08:00 14.2° 1019.7 hPa 0.8 m/s 33.3 mm 14.2° 1019.7 hPa 0.8 m/s 33.3 mm
14:00 20.6° 1018.8 hPa 0.6 m/s 33.3 mm 20.6° 1018.8 hPa 0.6 m/s 33.3 mm
20:00 19.2° 1019.8 hPa 0.8 m/s 33.3 mm 19.2° 1019.8 hPa 0.8 m/s 33.3 mm
 03:56     22:38    Daglengte: 18:42 Zaterdag 04 Jun
02:00 13.6° 1023.0 hPa 0.2 m/s 33.3 mm 13.6° 1023.0 hPa 0.2 m/s 33.3 mm
08:00 17.3° 1024.2 hPa 0.3 m/s 33.3 mm 17.3° 1024.2 hPa 0.3 m/s 33.3 mm
14:00 23.8° 1022.5 hPa 1.8 m/s 33.3 mm 23.8° 1022.5 hPa 1.8 m/s 33.3 mm
20:00 21.8° 1021.6 hPa 1.8 m/s 33.3 mm 21.8° 1021.6 hPa 1.8 m/s 33.3 mm
 03:55     22:40    Daglengte: 18:45 Zondag 05 Jun
02:00 9.3° 1016.2 hPa 1.2 m/s 0.8 mm
08:00 12.2° 1015.7 hPa 1.3 m/s 0.8 mm
14:00 17.3° 1014.4 hPa 0.8 m/s 0.7 mm
20:00 15.9° 1013.5 hPa 0.6 m/s 1.4 mm
 03:53     22:41    Daglengte: 18:48 Maandag 06 Jun
02:00 9.4° 1015.3 hPa 0.8 m/s 0.4 mm
08:00 12.6° 1015.0 hPa 0.7 m/s 0.4 mm
14:00 17.8° 1013.4 hPa 0.5 m/s 0.9 mm
20:00 16.8° 1012.1 hPa 0.8 m/s 0.8 mm
 03:52     22:43    Daglengte: 18:51 Dinsdag 07 Jun
02:00 10.0° 1013.4 hPa 1.0 m/s 0.4 mm
08:00 13.1° 1012.6 hPa 1.0 m/s 0.0 mm
14:00 17.8° 1010.5 hPa 0.9 m/s 1.3 mm
20:00 16.1° 1009.4 hPa 0.9 m/s 1.3 mm
 03:51     22:44    Daglengte: 18:53 Woensdag 08 Jun
02:00 10.3° 1010.8 hPa 0.8 m/s 0.7 mm
08:00 12.4° 1010.5 hPa 0.8 m/s 0.9 mm
14:00 17.4° 1009.3 hPa 0.7 m/s 1.6 mm
20:00 15.5° 1008.8 hPa 0.5 m/s 2.1 mm
 03:50     22:45    Daglengte: 18:55 Donderdag 09 Jun
02:00 9.9° 1010.3 hPa 0.5 m/s 0.7 mm
08:00 12.3° 1010.1 hPa 0.5 m/s 0.4 mm
14:00 17.0° 1009.1 hPa 0.5 m/s 0.7 mm
20:00 15.7° 1008.5 hPa 0.4 m/s 1.5 mm
 03:50     22:47    Daglengte: 18:57 Vrijdag 10 Jun
02:00 10.3° 1010.1 hPa 0.6 m/s 0.0 mm
FMI Hirlam - 7.5 km EWN WRFDA - 12 km DWD ICON - 7 km GFS - 25 km Basiskaart